Home   Weather   Fredericton   Past weeks

Flag for Canada Past Weather in Fredericton, New Brunswick, Canada — Yesterday and Last 2 Weeks

36 °F


Feels Like: 29 °F
Forecast: 28 / 42 °F
Wind: 9 mph from North

Location: Fredericton

Current Time: Oct 27, 2016 at 4:04:06 AM

Latest Report: Oct 27, 2016 at 3:00 AM

Visibility: 9 mi

Pressure: 30.43 "Hg

Humidity: 93%

Dew Point: 34 °F

Location of FrederictonLocation

Past Weather in Fredericton — Graph


Fredericton Temperature Yesterday

Maximum temperature yesterday: 45 °F (at 2:00 PM)
Minimum temperature yesterday: 36 °F (at 11:00 PM)
Average temperature yesterday: 40 °F

High & Low Weather Summary for the Past Weeks

High66 °F (Oct 12, 4:00 PM)100% (Oct 12, 3:00 AM)30.47 "Hg (Oct 12, 3:00 AM)
Low25 °F (Oct 15, 8:00 AM)33% (Oct 15, 4:00 PM)29.10 "Hg (Oct 22, 5:57 PM)
Average48 °F81%29.91 "Hg
* Reported Oct 12 3:00 AM — Oct 27 3:00 AM, Fredericton, Weather by CustomWeather, © 2016

Note: Actual official high and low records may vary slightly from our data, if they occured in-between our weather recording intervals... More about our weather records


Fredericton Weather History for the Previous 24 Hours

Scroll right to see more
Time TempWeatherWind HumidityBarometerVisibility
3:00 AM
Thu, Oct 27
36 °FOvercast.9 mph93%30.43 "Hg9 mi
2:00 AM36 °FOvercast.13 mph93%30.42 "Hg9 mi
1:04 AM36 °FOvercast.9 mph93%30.41 "Hg9 mi
12:54 AM36 °FOvercast.10 mph93%30.40 "Hg9 mi
12:00 AM37 °FOvercast.8 mph87%30.39 "Hg9 mi
11:00 PM
Wed, Oct 26
36 °FPassing clouds.7 mph87%30.39 "Hg9 mi
10:00 PM37 °FPassing clouds.7 mph87%30.37 "Hg9 mi
9:51 PM37 °FPassing clouds.8 mph87%30.37 "Hg9 mi
9:00 PM37 °FPassing clouds.9 mph87%30.35 "Hg9 mi
8:00 PM39 °FPartly cloudy.10 mph87%30.33 "Hg9 mi
7:00 PM39 °FPassing clouds.13 mph87%30.32 "Hg9 mi
6:00 PM41 °FMore clouds than sun.10 mph81%30.29 "Hg9 mi
5:00 PM43 °FMore clouds than sun.15 mph76%30.27 "Hg9 mi
4:59 PM43 °FMore clouds than sun.14 mph76%30.27 "Hg9 mi
4:00 PM43 °FLight rain. Cloudy.12 mph81%30.26 "Hg9 mi
3:00 PM43 °FLight rain. Mostly cloudy.15 mph81%30.25 "Hg9 mi
2:00 PM45 °FOvercast.15 mph71%30.23 "Hg9 mi
1:00 PM43 °FOvercast.14 mph76%30.23 "Hg9 mi
12:04 PM41 °FOvercast.12 mph81%30.23 "Hg9 mi
12:00 PM41 °FLight rain. Overcast.13 mph81%30.23 "Hg9 mi
11:00 AM41 °FOvercast.9 mph81%30.22 "Hg9 mi
10:00 AM39 °FOvercast.13 mph87%30.21 "Hg9 mi
9:00 AM37 °FOvercast.10 mph87%30.19 "Hg9 mi
8:00 AM37 °FOvercast.9 mph87%30.17 "Hg9 mi
7:04 AM37 °FMostly cloudy.8 mph87%30.14 "Hg9 mi
6:00 AM37 °FMostly cloudy.12 mph93%30.11 "Hg9 mi
5:00 AM39 °FOvercast.10 mph87%30.09 "Hg9 mi
4:00 AM39 °FOvercast.12 mph87%30.08 "Hg9 mi
Weather by CustomWeather, © 2016

See weather overviewHow to use our weather pages